Location: Ahausen
(50.4985°N, 8.2722°E)
Time: 22:29:16
(UTC+00:00)

Altair - Visible Passes

Search period start: 28 May 2022 00:00
Search period end: 07 June 2022 00:00
Orbit: 1501 x 1683 km, 47.2° (Epoch: 27 May)

Date Brightness Start Highest point End Pass type
(mag) Time Alt. Az. Time Alt. Az. Time Alt. Az.
28 May 7.9 20:11:10 10° W 20:20:59 57° SSW 20:30:45 10° SE visible
28 May 8.7 22:16:33 10° W 22:24:17 26° SW 22:28:58 18° S visible
29 May 8.6 21:51:12 10° W 21:59:13 28° SW 22:04:50 17° S visible
30 May 8.6 21:25:52 10° W 21:34:09 30° SW 21:40:45 15° S visible
31 May 8.6 21:00:34 10° W 21:09:03 32° SW 21:16:43 12° SSE visible
01 Jun 8.5 20:35:16 10° W 20:43:58 34° SW 20:52:38 10° SSE visible
02 Jun 8.5 20:10:00 10° W 20:18:52 36° SW 20:27:44 10° SSE visible
02 Jun 9.4 22:19:41 10° WSW 22:21:15 10° WSW 22:22:49 10° SW visible
03 Jun 9.3 21:52:57 10° WSW 21:56:15 12° WSW 21:59:34 10° SW visible
04 Jun 9.3 21:26:54 10° W 21:31:15 14° WSW 21:35:36 10° SSW visible
05 Jun 9.3 21:01:07 10° W 21:06:15 15° SW 21:11:23 10° SSW visible
06 Jun 9.3 20:35:28 10° W 20:41:14 17° SW 20:47:00 10° SSW visible
